This is the latest recevied weather packets stored in our database for station/object KI4NG. If no packets are shown the sender has not sent any weather packets the latest 10 day(s).
| Time | Temp. | Humidity | Pressure | Rain* | Wind** | Luminosity | Snow |
|---|---|---|---|---|---|---|---|
| 1777383024 | 13.89° C | 99% | 1018.3 hPa | 0 mm | - | 157 W/m² | - |
| 1777382721 | 13.89° C | 99% | 1018.3 hPa | 0 mm | - | 140 W/m² | - |
| 1777382416 | 13.89° C | 99% | 1018.3 hPa | 0 mm | - | 120 W/m² | - |
| 1777382113 | 13.89° C | 99% | 1018.5 hPa | 0 mm | - | 88 W/m² | - |
| 1777381809 | 13.89° C | 99% | 1018.9 hPa | 0 mm | - | 86 W/m² | - |
| 1777381502 | 13.89° C | 99% | 1018.7 hPa | 0 mm | - | 114 W/m² | - |
| 1777381199 | 13.89° C | 99% | 1019 hPa | 0 mm | - | 108 W/m² | - |
| 1777380896 | 13.89° C | 99% | 1018.8 hPa | 0 mm | - | 110 W/m² | - |
| 1777380594 | 13.89° C | 99% | 1018.6 hPa | 0 mm | - | 101 W/m² | - |
| 1777380289 | 13.89° C | 99% | 1018.7 hPa | 0 mm | - | 86 W/m² | - |
| 1777379986 | 13.33° C | 99% | 1018.6 hPa | 0 mm | - | 79 W/m² | - |
| 1777379682 | 13.33° C | 99% | 1018.3 hPa | 0 mm | - | 71 W/m² | - |
| 1777379377 | 13.33° C | 99% | 1018.2 hPa | 0 mm | - | 71 W/m² | - |
| 1777379073 | 13.33° C | 99% | 1018.1 hPa | 0 mm | - | 68 W/m² | - |
| 1777378767 | 13.33° C | 99% | 1018.1 hPa | 0 mm | - | 50 W/m² | - |
| 1777378465 | 13.33° C | 99% | 1018.1 hPa | 0 mm | - | 33 W/m² | - |
| 1777378161 | 13.33° C | 99% | 1017.4 hPa | 0 mm | - | 55 W/m² | - |
| 1777377858 | 13.33° C | 99% | 1017 hPa | 0 mm | - | 49 W/m² | - |
| 1777377553 | 13.33° C | 99% | 1016.9 hPa | 0 mm | - | 40 W/m² | - |
| 1777377248 | 13.33° C | 99% | 1016.7 hPa | 0 mm | - | 28 W/m² | - |
| 1777376946 | 13.33° C | 99% | 1016 hPa | 0 mm | - | 19 W/m² | - |
| 1777376643 | 13.33° C | 99% | 1016.2 hPa | 0 mm | - | 16 W/m² | - |
| 1777376341 | 13.33° C | 99% | 1016.1 hPa | 0 mm | - | 10 W/m² | - |
| 1777376035 | 13.33° C | 99% | 1015.2 hPa | 0 mm | - | 4 W/m² | - |
| 1777375735 | 13.33° C | 99% | 1014.7 hPa | 1.78 mm | - | 1 W/m² | - |
* Rain latest hour (hover to see other rain measurements)
** Current wind speed in m/s (hover to see current wind gust speed)